Regional Weather Roundup
Issued by NWS

Home | Current Version | Previous Version | Graphics & Text | Print | Product List | Glossary On
Versions: 1 2 3 4 5 6 7 8 9 10 11 12 13 14 15 16 17 18 19 20 21 22 23 24 25 26 27 28 29 30 31 32 33 34 35 36 37 38 39 40 41 42 43 44 45 46 47 48 49 50
524
ASUS45 KSLC 091610
RWRUT

UTAH REGIONAL WEATHER ROUNDUP
NATIONAL WEATHER SERVICE SALT LAKE CITY UT
900 AM MST FRI DEC 09 2016

UTZ001>011-023>025-091700-

NORTHERN UTAH

CITY           SKY/WX    TMP DP  RH WIND       PRES   REMARKS
BRIGHAM CITY     N/A     31  26  82 N3        30.22R
HILL AFB       CLOUDY    35  31  83 CALM      30.19S
LOGAN          CLOUDY    29  26  89 SE5       30.19R WCI  24
OGDEN          CLOUDY    33  29  85 CALM      30.19S
SALT LAKE CITY CLOUDY    33  29  85 W5        30.20R WCI  29
WENDOVER       CLOUDY    23  18  80 CALM      30.22R
HEBER CITY     CLOUDY    32  32 100 CALM      30.21S FOG

$$

UTZ011>015-024>027-091700-

CENTRAL/NORTHEAST UTAH

CITY           SKY/WX    TMP DP  RH WIND       PRES   REMARKS
PROVO AIRPORT  CLOUDY    36  31  82 SE6       30.25R WCI  31
MOAB/CANYONLAN MOSUNNY   26  10  50 NE3       30.34R
DELTA          CLOUDY    36  21  55 SE5       30.23S WCI  32
PRICE          CLOUDY    24  10  55 CALM      30.30R
RICHFIELD      CLOUDY    30  23  74 CALM      30.27R
ROOSEVELT      CLOUDY    18  12  79 SW3       30.31S
VERNAL         CLOUDY    23  15  71 CALM      30.29S

$$

UTZ013>016-019>022-027-091700-

SOUTHERN UTAH

CITY           SKY/WX    TMP DP  RH WIND       PRES   REMARKS
BRYCE CANYON   PTSUNNY   19  15  84 SW6       30.29S WCI  11
CEDAR CITY     CLOUDY    30  23  75 N3        30.26F
MILFORD        CLOUDY    36  19  50 S18       30.24R WCI  26
ST GEORGE      CLOUDY    32  18  55 CALM      30.36R
HANKSVILLE     PTSUNNY   21   9  58 SW3       30.39R
KANAB          PTSUNNY   32  23  69 CALM      30.37S
BLANDING       MOSUNNY   33  19  57 SE3       30.41R

$$

REGIONAL REPORTS     COLORADO/ARIZONA

CITY           SKY/WX    TMP DP  RH WIND       PRES   REMARKS
CRAIG, CO      CLOUDY    29  22  75 NE5       30.22S WCI  24
GRAND JUNCTION CLOUDY    25  17  72 CALM      30.34R
RIFLE, CO      CLOUDY    26  16  65 CALM      30.33F
MONTROSE, CO   PTSUNNY   30  19  63 CALM      30.32F
CORTEZ, CO     SUNNY     33  24  69 CALM      30.34R
COLORADO CITY    N/A     32  28  86 CALM      30.34S
PAGE, AZ       PTSUNNY   34  10  37 SW3       30.34R
GRAND CANYON   CLOUDY    35  31  85 CALM      30.33S
KINGMAN, AZ    CLOUDY    45  22  40 CALM      30.28R
FLAGSTAFF, AZ  PTSUNNY   34  32  92 CALM      30.33S

$$

REGIONAL REPORTS    NEVADA/IDAHO/WYOMING

CITY           SKY/WX    TMP DP  RH WIND       PRES   REMARKS
LAS VEGAS, NV  CLOUDY    48  11  22 CALM      30.30R
ELY, NY        CLOUDY    26  13  57 S7        30.26R WCI  18
ELKO, NV       CLOUDY    37  26  64 W6        30.17R WCI  32
POCATELLO, ID  CLOUDY    22  19  89 N8        30.16R WCI  12
FORT BRIDGER,  CLOUDY    33  33 100 W14       30.18R WCI  24
EVANSTON, WY   LGT SNOW  31  29  92 SW15      30.18R FOG     WCI  20
ROCK SPRINGS,  SUNNY     29  26  89 W23       30.13S WCI  15
KEMMERER, WY   FLURRIES  30  28  93 SW15      30.14R WCI  19

$$




USA.gov is the U.S. government's official web portal to all federal, state and local government web resources and services.